This demonstration page uses our WeatherBlox Daily Observations layout. Learn more.

Left ArrowRight Arrow

Hourly Observations for October 29, 2021

Temp ( °F °C ) Dew Point ( °F °C ) Humidity (%) Winds ( mph kmh ) Pressure ( in mb ) Visibility ( mi km ) Precip ( " mm )
12:56 am 00:56 Clear 43 6.1 28 -2.2 56 56 NW 13 20 30.09 1019 10 16 N/A
1:56 am 01:56 Clear 40 4.4 28 -2.2 63 63 NW 10 17 30.09 1019 10 16 N/A
2:56 am 02:56 Clear 39 3.9 28 -2.2 65 65 NW 13 20 30.10 1019 10 16 N/A
3:56 am 03:56 Clear 38 3.3 28 -2.2 68 68 NW 9 15 30.10 1019 10 16 N/A
4:56 am 04:56 Clear 37 2.8 28 -2.2 70 70 NW 13 20 30.11 1020 10 16 N/A
5:56 am 05:56 Clear 37 2.8 28 -2.2 70 70 NW 10 17 30.12 1020 10 16 N/A
6:56 am 06:56 Clear 36 2.2 27 -2.8 70 70 NW 10 17 30.13 1020 10 16 N/A
7:56 am 07:56 Clear 35 1.7 27 -2.8 72 72 NW 8 13 30.14 1021 10 16 N/A
8:56 am 08:56 Sunny 36 2.2 28 -2.2 73 73 NW 9 15 30.16 1021 10 16 N/A
9:56 am 09:56 Sunny 43 6.1 30 -1.1 60 60 NW 9 15 30.16 1021 10 16 N/A
10:56 am 10:56 Sunny 51 10.6 30 -1.1 44 44 N 14 22 30.14 1021 10 16 N/A
11:56 am 11:56 Sunny 55 12.8 29 -1.7 37 37 NNE 10 17 30.14 1021 10 16 N/A
12:56 pm 12:56 Sunny 57 13.9 28 -2.2 33 33 N 9 15 30.11 1020 10 16 N/A
1:56 pm 13:56 Sunny 59 15 27 -2.8 29 29 N 12 19 30.08 1019 10 16 N/A
2:56 pm 14:56 Sunny 60 15.6 26 -3.3 27 27 VRB 7 11 30.05 1018 10 16 N/A
3:56 pm 15:56 Sunny 61 16.1 26 -3.3 26 26 WNW 8 13 30.03 1017 10 16 N/A
4:56 pm 16:56 Sunny 61 16.1 28 -2.2 29 29 WNW 6 9 30.02 1017 10 16 N/A
5:56 pm 17:56 Sunny 59 15 27 -2.8 29 29 N N/A 30.01 1016 10 16 N/A
6:56 pm 18:56 Clear 55 12.8 27 -2.8 34 34 S 3 6 30.00 1016 10 16 N/A
7:56 pm 19:56 Clear 46 7.8 30 -1.1 54 54 SE 5 7 30.01 1016 10 16 N/A
8:56 pm 20:56 Clear 45 7.2 30 -1.1 56 56 S 5 7 30.00 1016 10 16 N/A
9:56 pm 21:56 Clear 43 6.1 32 undefined 65 65 SSW 6 9 29.97 1015 10 16 N/A
10:56 pm 22:56 Clear 43 6.1 30 -1.1 60 60 SSW 5 7 29.96 1015 10 16 N/A
11:56 pm 23:56 Clear 41 5 31 -0.6 67 67 S 3 6 29.95 1014 10 16 N/A

Powered by AerisWeather